Location: Mainz-Finthen
(49.9906°N, 8.1713°E)
Time: 02:24:57
(UTC+00:00)

NOAA 19 - Visible Passes

Search period start: 29 November 2021 00:00
Search period end: 09 December 2021 00:00
Orbit: 840 x 861 km, 99.2° (Epoch: 28 November)

Date Brightness Start Highest point End Pass type
(mag) Time Alt. Az. Time Alt. Az. Time Alt. Az.
29 Nov 6.5 16:16:33 10° E 16:20:09 18° NE 16:23:45 10° NNE visible
29 Nov 5.1 17:54:37 10° SSE 18:00:05 88° ENE 18:05:36 10° NNW visible
29 Nov 7.8 19:38:13 10° SW 19:41:29 16° W 19:44:47 10° NW visible
30 Nov 7.6 06:12:17 10° NE 06:16:51 26° E 06:21:24 10° SSE visible
30 Nov 6.7 16:05:28 10° E 16:08:31 15° NE 16:11:34 10° NNE visible
30 Nov 5.0 17:42:51 10° SSE 17:48:17 73° ENE 17:53:45 10° NNW visible
30 Nov 7.5 19:25:35 10° SW 19:29:30 20° W 19:33:28 10° NW visible
01 Dec 7.9 06:00:46 10° NE 06:04:54 21° E 06:09:01 10° SE visible
01 Dec 5.2 17:31:10 10° SSE 17:36:31 59° ENE 17:41:53 10° N visible
01 Dec 7.2 19:13:09 10° SSW 19:17:33 25° W 19:21:59 10° NW visible
02 Dec 8.0 05:49:23 10° NE 05:52:56 17° E 05:56:27 10° SE visible
02 Dec 5.3 17:19:32 10° SE 17:24:45 48° ENE 17:30:00 10° N visible
02 Dec 6.9 19:00:52 10° SSW 19:05:37 30° W 19:10:25 10° NNW visible
03 Dec 8.2 05:38:15 10° ENE 05:40:56 14° E 05:43:37 10° ESE visible
03 Dec 5.6 17:07:58 10° SE 17:13:01 40° ENE 17:18:05 10° N visible
03 Dec 6.5 18:48:41 10° SSW 18:53:42 37° W 18:58:46 10° NNW visible
04 Dec 8.5 05:27:48 10° ENE 05:28:55 11° E 05:30:02 10° E visible
04 Dec 5.8 16:56:29 10° ESE 17:01:17 33° ENE 17:06:08 10° N visible
04 Dec 6.1 18:36:36 10° S 18:41:49 46° W 18:47:05 10° NNW visible
05 Dec 6.0 16:45:03 10° ESE 16:49:36 28° ENE 16:54:10 10° N visible
05 Dec 5.7 18:24:35 10° S 18:29:56 57° WSW 18:35:21 10° NNW visible
06 Dec 6.2 16:33:42 10° ESE 16:37:55 23° ENE 16:42:09 10° N visible
06 Dec 5.4 18:12:39 10° S 18:18:05 70° WSW 18:23:35 10° NNW visible
06 Dec 8.1 19:58:02 10° WSW 19:59:46 11° W 20:01:31 10° WNW visible
07 Dec 7.1 06:29:58 10° NNE 06:35:01 35° E 06:40:02 10° SSE visible
07 Dec 6.4 16:22:28 10° E 16:26:15 20° NE 16:30:05 10° N visible
07 Dec 5.1 18:00:48 10° SSE 18:06:16 85° WSW 18:11:47 10° NNW visible
07 Dec 7.9 19:44:48 10° WSW 19:47:45 15° W 19:50:43 10° NW visible
08 Dec 7.5 06:18:22 10° NE 06:23:06 28° E 06:27:50 10° SSE visible
08 Dec 6.6 16:11:19 10° E 16:14:37 17° NE 16:17:56 10° NNE visible
08 Dec 5.0 17:49:00 10° SSE 17:54:27 79° ENE 17:59:58 10° NNW visible
08 Dec 7.6 19:32:04 10° SW 19:35:45 18° W 19:39:28 10° NW visible
